Time,TemperatureF,DewpointF,PressureIn,WindDirection,WindDirectionDegrees,WindSpeedMPH,WindSpeedGustMPH,Humidity,HourlyPrecipIn,Conditions,Clouds,dailyrainin,SoftwareType,DateUTC
2013-01-03 00:02:00,27.9,24.3,30.24,SSW,211,0.0,0.0,86,0.00,,---,0.00,VWS V14.01,2013-01-03 06:02:00,
2013-01-03 00:07:00,28.0,24.4,30.32,SSW,211,0.0,1.0,86,0.00,,---,0.00,VWS V14.01,2013-01-03 06:07:00,
2013-01-03 00:12:00,28.0,24.4,30.25,SSW,211,1.0,1.0,86,0.00,,---,0.00,VWS V14.01,2013-01-03 06:12:00,
2013-01-03 00:17:00,28.0,24.4,30.25,SSW,211,0.0,0.0,86,0.00,,---,0.00,VWS V14.01,2013-01-03 06:17:00,
2013-01-03 00:22:00,28.1,24.5,30.25,SSW,211,1.0,1.0,86,0.00,,---,0.00,VWS V14.01,2013-01-03 06:22:00,
2013-01-03 00:27:00,28.0,24.4,30.32,SSW,211,0.0,1.0,86,0.00,,---,0.00,VWS V14.01,2013-01-03 06:27:00,
2013-01-03 00:32:00,28.1,24.5,30.24,SSW,211,2.0,2.0,86,0.00,,---,0.00,VWS V14.01,2013-01-03 06:32:00,
2013-01-03 00:37:00,28.0,24.4,30.32,SSW,211,0.0,1.0,86,0.00,,---,0.00,VWS V14.01,2013-01-03 06:37:00,
2013-01-03 00:42:00,27.8,24.2,30.25,SSW,211,0.0,1.0,86,0.00,,---,0.00,VWS V14.01,2013-01-03 06:42:00,
2013-01-03 00:47:00,27.5,23.9,30.24,SSW,211,0.0,0.0,86,0.00,,---,0.00,VWS V14.01,2013-01-03 06:47:00,
2013-01-03 00:52:00,27.0,23.4,30.24,SSW,211,0.0,0.0,86,0.00,,---,0.00,VWS V14.01,2013-01-03 06:52:00,
2013-01-03 00:57:00,26.5,22.9,30.32,SSW,211,0.0,0.0,86,0.00,,---,0.00,VWS V14.01,2013-01-03 06:57:00,
2013-01-03 01:02:00,26.2,22.9,30.32,SSW,211,0.0,0.0,87,0.00,,---,0.00,VWS V14.01,2013-01-03 07:02:00,
2013-01-03 01:07:00,26.0,22.7,30.24,SSW,211,0.0,0.0,87,0.00,,---,0.00,VWS V14.01,2013-01-03 07:07:00,
2013-01-03 01:12:00,25.7,22.6,30.24,SSW,211,0.0,0.0,88,0.00,,---,0.00,VWS V14.01,2013-01-03 07:12:00,
2013-01-03 01:17:00,25.3,22.2,30.24,SSW,211,0.0,0.0,88,0.00,,---,0.00,VWS V14.01,2013-01-03 07:17:00,
2013-01-03 01:22:00,25.1,22.0,30.25,SSW,211,0.0,0.0,88,0.00,,---,0.00,VWS V14.01,2013-01-03 07:22:00,
2013-01-03 01:27:00,24.8,21.8,30.32,SSW,211,0.0,0.0,88,0.00,,---,0.00,VWS V14.01,2013-01-03 07:27:00,
2013-01-03 01:32:00,24.5,21.7,30.32,SSW,211,0.0,0.0,89,0.00,,---,0.00,VWS V14.01,2013-01-03 07:32:00,
2013-01-03 01:37:00,24.1,21.3,30.32,SSW,211,0.0,0.0,89,0.00,,---,0.00,VWS V14.01,2013-01-03 07:37:00,
2013-01-03 01:41:00,23.9,21.1,30.33,SSW,211,0.0,0.0,89,0.00,,---,0.00,VWS V14.01,2013-01-03 07:41:00,
2013-01-03 01:46:00,23.8,21.3,30.33,SSW,211,0.0,0.0,90,0.00,,---,0.00,VWS V14.01,2013-01-03 07:46:00,
2013-01-03 01:51:00,23.5,21.0,30.33,SSW,211,0.0,0.0,90,0.00,,---,0.00,VWS V14.01,2013-01-03 07:51:00,
2013-01-03 01:56:00,23.3,20.8,30.25,SSW,211,0.0,0.0,90,0.00,,---,0.00,VWS V14.01,2013-01-03 07:56:00,
2013-01-03 02:01:00,23.3,20.8,30.25,SSW,211,0.0,0.0,90,0.00,,---,0.00,VWS V14.01,2013-01-03 08:01:00,
2013-01-03 02:06:00,23.0,20.5,30.26,SSW,211,0.0,0.0,90,0.00,,---,0.00,VWS V14.01,2013-01-03 08:06:00,
2013-01-03 02:11:00,22.9,20.7,30.34,SSW,211,0.0,0.0,91,0.00,,---,0.00,VWS V14.01,2013-01-03 08:11:00,
2013-01-03 02:16:00,22.7,20.5,30.26,SSW,211,0.0,0.0,91,0.00,,---,0.00,VWS V14.01,2013-01-03 08:16:00,
2013-01-03 02:21:00,22.6,20.4,30.34,SSW,211,0.0,1.0,91,0.00,,---,0.00,VWS V14.01,2013-01-03 08:21:00,
2013-01-03 02:26:00,22.9,20.7,30.27,SSW,211,0.0,0.0,91,0.00,,---,0.00,VWS V14.01,2013-01-03 08:26:00,
2013-01-03 02:31:00,23.0,20.8,30.34,SSW,211,0.0,0.0,91,0.00,,---,0.00,VWS V14.01,2013-01-03 08:31:00,
2013-01-03 02:36:00,23.4,21.2,30.35,SSW,211,0.0,1.0,91,0.00,,---,0.00,VWS V14.01,2013-01-03 08:36:00,
2013-01-03 02:41:00,23.5,21.3,30.35,SSW,211,0.0,1.0,91,0.00,,---,0.00,VWS V14.01,2013-01-03 08:41:00,
2013-01-03 02:46:00,23.5,21.3,30.27,SSW,211,0.0,0.0,91,0.00,,---,0.00,VWS V14.01,2013-01-03 08:46:00,
2013-01-03 02:51:00,24.1,22.1,30.35,SSW,211,0.0,1.0,92,0.00,,---,0.00,VWS V14.01,2013-01-03 08:51:00,
2013-01-03 02:56:00,24.4,22.4,30.27,SSW,211,0.0,0.0,92,0.00,,---,0.00,VWS V14.01,2013-01-03 08:56:00,
2013-01-03 03:01:00,25.0,23.0,30.27,SSW,211,0.0,0.0,92,0.00,,---,0.00,VWS V14.01,2013-01-03 09:01:00,
2013-01-03 03:06:00,25.4,23.4,30.35,SSW,211,0.0,0.0,92,0.00,,---,0.00,VWS V14.01,2013-01-03 09:06:00,
2013-01-03 03:11:00,25.4,23.1,30.27,SSW,211,0.0,0.0,91,0.00,,---,0.00,VWS V14.01,2013-01-03 09:11:00,
2013-01-03 03:16:00,25.6,23.3,30.35,SSW,211,0.0,1.0,91,0.00,,---,0.00,VWS V14.01,2013-01-03 09:16:00,
2013-01-03 03:21:00,26.0,23.7,30.28,SSW,211,0.0,0.0,91,0.00,,---,0.00,VWS V14.01,2013-01-03 09:21:00,
2013-01-03 03:26:00,26.1,23.8,30.27,SSW,211,0.0,0.0,91,0.00,,---,0.00,VWS V14.01,2013-01-03 09:26:00,
2013-01-03 03:31:00,26.2,23.9,30.35,SSW,211,0.0,0.0,91,0.00,,---,0.00,VWS V14.01,2013-01-03 09:31:00,
2013-01-03 03:36:00,26.1,23.8,30.27,SSW,211,0.0,0.0,91,0.00,,---,0.00,VWS V14.01,2013-01-03 09:36:00,
2013-01-03 03:41:00,26.2,23.9,30.27,SSW,211,0.0,0.0,91,0.00,,---,0.00,VWS V14.01,2013-01-03 09:41:00,
2013-01-03 03:46:00,26.4,24.1,30.27,SSW,211,0.0,0.0,91,0.00,,---,0.00,VWS V14.01,2013-01-03 09:46:00,
2013-01-03 03:51:00,26.6,24.3,30.27,SSW,211,0.0,0.0,91,0.00,,---,0.00,VWS V14.01,2013-01-03 09:51:00,
2013-01-03 03:56:00,26.6,24.3,30.35,SSW,211,0.0,1.0,91,0.00,,---,0.00,VWS V14.01,2013-01-03 09:56:00,
2013-01-03 04:01:00,26.7,24.4,30.35,SSW,211,0.0,0.0,91,0.00,,---,0.00,VWS V14.01,2013-01-03 10:01:00,
2013-01-03 04:06:00,26.8,24.5,30.34,SSW,211,0.0,2.0,91,0.00,,---,0.00,VWS V14.01,2013-01-03 10:06:00,
2013-01-03 04:11:00,26.9,24.6,30.34,SSW,211,0.0,2.0,91,0.00,,---,0.00,VWS V14.01,2013-01-03 10:11:00,
2013-01-03 04:16:00,27.0,24.7,30.34,SSW,211,0.0,0.0,91,0.00,,---,0.00,VWS V14.01,2013-01-03 10:16:00,
2013-01-03 04:21:00,27.1,24.8,30.35,SSW,211,0.0,0.0,91,0.00,,---,0.00,VWS V14.01,2013-01-03 10:21:00,
2013-01-03 04:26:00,27.2,24.9,30.28,SSW,211,0.0,0.0,91,0.00,,---,0.00,VWS V14.01,2013-01-03 10:26:00,
2013-01-03 04:31:00,27.2,24.9,30.27,SSW,211,0.0,0.0,91,0.00,,---,0.00,VWS V14.01,2013-01-03 10:31:00,
2013-01-03 04:36:00,27.2,24.7,30.27,SSW,211,0.0,0.0,90,0.00,,---,0.00,VWS V14.01,2013-01-03 10:36:00,
2013-01-03 04:41:00,27.0,24.5,30.34,SSW,211,0.0,0.0,90,0.00,,---,0.00,VWS V14.01,2013-01-03 10:41:00,
2013-01-03 04:46:00,26.6,24.1,30.34,SSW,211,0.0,0.0,90,0.00,,---,0.00,VWS V14.01,2013-01-03 10:46:00,
2013-01-03 04:51:00,26.2,23.7,30.34,SSW,211,0.0,0.0,90,0.00,,---,0.00,VWS V14.01,2013-01-03 10:51:00,
2013-01-03 04:56:00,26.0,23.7,30.34,SSW,211,0.0,0.0,91,0.00,,---,0.00,VWS V14.01,2013-01-03 10:56:00,
2013-01-03 05:01:00,25.6,23.3,30.34,SSW,211,0.0,0.0,91,0.00,,---,0.00,VWS V14.01,2013-01-03 11:01:00,
2013-01-03 05:06:00,25.2,23.0,30.27,SSW,211,0.0,0.0,91,0.00,,---,0.00,VWS V14.01,2013-01-03 11:06:00,
2013-01-03 05:11:00,24.9,22.6,30.27,SSW,211,0.0,0.0,91,0.00,,---,0.00,VWS V14.01,2013-01-03 11:11:00,
2013-01-03 05:16:00,24.7,22.5,30.35,SSW,211,0.0,0.0,91,0.00,,---,0.00,VWS V14.01,2013-01-03 11:16:00,
2013-01-03 05:21:00,24.6,22.6,30.27,SSW,211,0.0,0.0,92,0.00,,---,0.00,VWS V14.01,2013-01-03 11:21:00,
2013-01-03 05:26:00,24.6,22.6,30.35,SSW,211,0.0,0.0,92,0.00,,---,0.00,VWS V14.01,2013-01-03 11:26:00,
2013-01-03 05:31:00,24.5,22.5,30.35,SSW,211,0.0,1.0,92,0.00,,---,0.00,VWS V14.01,2013-01-03 11:31:00,
2013-01-03 05:36:00,24.5,22.5,30.35,SSW,211,1.0,2.0,92,0.00,,---,0.00,VWS V14.01,2013-01-03 11:36:00,
2013-01-03 05:41:00,24.3,22.3,30.28,SSW,211,1.0,1.0,92,0.00,,---,0.00,VWS V14.01,2013-01-03 11:41:00,
2013-01-03 05:46:00,23.8,21.8,30.35,SSW,211,0.0,0.0,92,0.00,,---,0.00,VWS V14.01,2013-01-03 11:46:00,
2013-01-03 05:51:00,23.6,21.6,30.36,SSW,211,0.0,1.0,92,0.00,,---,0.00,VWS V14.01,2013-01-03 11:51:00,
2013-01-03 05:56:00,23.9,21.9,30.36,SSW,212,3.0,3.0,92,0.00,,---,0.00,VWS V14.01,2013-01-03 11:56:00,
2013-01-03 06:01:00,24.0,22.0,30.36,SW,217,0.0,1.0,92,0.00,,---,0.00,VWS V14.01,2013-01-03 12:01:00,
2013-01-03 06:06:00,23.6,21.6,30.29,SW,217,0.0,0.0,92,0.00,,---,0.00,VWS V14.01,2013-01-03 12:06:00,
2013-01-03 06:11:00,23.0,21.0,30.36,SW,217,0.0,0.0,92,0.00,,---,0.00,VWS V14.01,2013-01-03 12:11:00,
2013-01-03 06:16:00,22.7,20.7,30.29,SW,217,0.0,0.0,92,0.00,,---,0.00,VWS V14.01,2013-01-03 12:16:00,
2013-01-03 06:21:00,22.8,20.8,30.37,SW,217,0.0,0.0,92,0.00,,---,0.00,VWS V14.01,2013-01-03 12:21:00,
2013-01-03 06:26:00,22.2,20.2,30.30,SW,217,1.0,1.0,92,0.00,,---,0.00,VWS V14.01,2013-01-03 12:26:00,
2013-01-03 06:31:00,22.0,20.0,30.37,SW,217,0.0,0.0,92,0.00,,---,0.00,VWS V14.01,2013-01-03 12:31:00,
2013-01-03 06:36:00,22.1,20.1,30.30,SW,217,1.0,1.0,92,0.00,,---,0.00,VWS V14.01,2013-01-03 12:36:00,
2013-01-03 06:41:00,22.6,20.9,30.38,SW,217,1.0,2.0,93,0.00,,---,0.00,VWS V14.01,2013-01-03 12:41:00,
2013-01-03 06:46:00,22.7,21.0,30.31,SW,217,2.0,2.0,93,0.00,,---,0.00,VWS V14.01,2013-01-03 12:46:00,
2013-01-03 06:51:00,22.8,21.1,30.31,SW,217,1.0,1.0,93,0.00,,---,0.00,VWS V14.01,2013-01-03 12:51:00,
2013-01-03 06:56:00,22.8,20.8,30.31,SW,217,0.0,0.0,92,0.00,,---,0.00,VWS V14.01,2013-01-03 12:56:00,
2013-01-03 07:01:00,22.6,20.6,30.38,SW,217,0.0,0.0,92,0.00,,---,0.00,VWS V14.01,2013-01-03 13:01:00,
2013-01-03 07:06:00,22.2,20.2,30.31,SW,217,0.0,0.0,92,0.00,,---,0.00,VWS V14.01,2013-01-03 13:06:00,
2013-01-03 07:11:00,22.2,20.2,30.38,SW,217,1.0,1.0,92,0.00,,---,0.00,VWS V14.01,2013-01-03 13:11:00,
2013-01-03 07:16:00,22.2,20.2,30.39,SW,217,2.0,2.0,92,0.00,,---,0.00,VWS V14.01,2013-01-03 13:16:00,
2013-01-03 07:21:00,22.1,20.1,30.32,SW,217,2.0,2.0,92,0.00,,---,0.00,VWS V14.01,2013-01-03 13:21:00,
2013-01-03 07:26:00,21.9,19.9,30.32,SW,217,1.0,1.0,92,0.00,,---,0.00,VWS V14.01,2013-01-03 13:26:00,
2013-01-03 07:31:00,21.7,19.7,30.39,SW,217,1.0,3.0,92,0.00,,---,0.00,VWS V14.01,2013-01-03 13:31:00,
2013-01-03 07:36:00,21.3,19.3,30.39,SW,217,0.0,0.0,92,0.00,,---,0.00,VWS V14.01,2013-01-03 13:36:00,
2013-01-03 07:41:00,21.1,19.1,30.40,SW,217,0.0,0.0,92,0.00,,---,0.00,VWS V14.01,2013-01-03 13:41:00,
2013-01-03 07:46:00,20.9,19.0,30.40,SW,217,0.0,0.0,92,0.00,,---,0.00,VWS V14.01,2013-01-03 13:46:00,
2013-01-03 07:51:00,21.0,19.0,30.33,SW,217,0.0,0.0,92,0.00,,---,0.00,VWS V14.01,2013-01-03 13:51:00,
2013-01-03 07:56:00,20.8,18.9,30.40,SW,217,0.0,0.0,92,0.00,,---,0.00,VWS V14.01,2013-01-03 13:56:00,
2013-01-03 08:01:00,20.7,18.8,30.40,SW,217,0.0,0.0,92,0.00,,---,0.00,VWS V14.01,2013-01-03 14:01:00,
2013-01-03 08:06:00,21.0,19.0,30.33,SW,217,0.0,0.0,92,0.00,,---,0.00,VWS V14.01,2013-01-03 14:06:00,
2013-01-03 08:11:00,21.2,19.2,30.34,SW,217,0.0,0.0,92,0.00,,---,0.00,VWS V14.01,2013-01-03 14:11:00,
2013-01-03 08:16:00,21.6,19.9,30.34,SW,217,0.0,0.0,93,0.00,,---,0.00,VWS V14.01,2013-01-03 14:16:00,
2013-01-03 08:21:00,22.0,20.3,30.41,SW,217,0.0,1.0,93,0.00,,---,0.00,VWS V14.01,2013-01-03 14:21:00,
2013-01-03 08:26:00,22.5,20.8,30.34,SW,217,0.0,0.0,93,0.00,,---,0.00,VWS V14.01,2013-01-03 14:26:00,
2013-01-03 08:31:00,22.9,21.2,30.35,SW,217,0.0,0.0,93,0.00,,---,0.00,VWS V14.01,2013-01-03 14:31:00,
2013-01-03 08:36:00,23.3,21.6,30.42,SW,217,0.0,1.0,93,0.00,,---,0.00,VWS V14.01,2013-01-03 14:36:00,
2013-01-03 08:41:00,23.7,21.7,30.35,SW,217,1.0,1.0,92,0.00,,---,0.00,VWS V14.01,2013-01-03 14:41:00,
2013-01-03 08:46:00,24.0,22.0,30.42,West,261,1.0,3.0,92,0.00,,---,0.00,VWS V14.01,2013-01-03 14:46:00,
2013-01-03 08:51:00,24.6,22.6,30.43,West,261,2.0,2.0,92,0.00,,---,0.00,VWS V14.01,2013-01-03 14:51:00,
2013-01-03 08:56:00,25.5,23.5,30.36,West,261,0.0,2.0,92,0.00,,---,0.00,VWS V14.01,2013-01-03 14:56:00,
2013-01-03 09:01:00,26.1,23.8,30.36,West,261,1.0,1.0,91,0.00,,---,0.00,VWS V14.01,2013-01-03 15:01:00,
2013-01-03 09:06:00,26.3,23.8,30.43,West,261,1.0,3.0,90,0.00,,---,0.00,VWS V14.01,2013-01-03 15:06:00,
2013-01-03 09:11:00,26.5,23.7,30.37,West,261,0.0,1.0,89,0.00,,---,0.00,VWS V14.01,2013-01-03 15:11:00,
2013-01-03 09:16:00,26.5,23.4,30.44,West,261,1.0,1.0,88,0.00,,---,0.00,VWS V14.01,2013-01-03 15:16:00,
2013-01-03 09:21:00,26.6,23.5,30.44,West,261,0.0,1.0,88,0.00,,---,0.00,VWS V14.01,2013-01-03 15:21:00,
2013-01-03 09:26:00,26.7,23.4,30.37,West,261,0.0,0.0,87,0.00,,---,0.00,VWS V14.01,2013-01-03 15:26:00,
2013-01-03 09:31:00,26.9,23.6,30.44,West,261,2.0,2.0,87,0.00,,---,0.00,VWS V14.01,2013-01-03 15:31:00,
2013-01-03 09:36:00,27.0,23.6,30.38,West,261,0.0,0.0,87,0.00,,---,0.00,VWS V14.01,2013-01-03 15:36:00,
2013-01-03 09:41:00,27.2,23.6,30.45,West,260,0.0,3.0,86,0.00,,---,0.00,VWS V14.01,2013-01-03 15:41:00,
2013-01-03 09:46:00,27.4,23.8,30.38,West,260,0.0,0.0,86,0.00,,---,0.00,VWS V14.01,2013-01-03 15:46:00,
2013-01-03 09:51:00,28.0,24.4,30.46,West,260,0.0,2.0,86,0.00,,---,0.00,VWS V14.01,2013-01-03 15:51:00,
2013-01-03 09:56:00,28.7,24.8,30.46,West,260,0.0,1.0,85,0.00,,---,0.00,VWS V14.01,2013-01-03 15:56:00,
2013-01-03 10:01:00,29.5,25.6,30.39,West,260,2.0,2.0,85,0.00,,---,0.00,VWS V14.01,2013-01-03 16:01:00,
2013-01-03 10:06:00,30.1,25.6,30.46,West,281,0.0,2.0,83,0.00,,---,0.00,VWS V14.01,2013-01-03 16:06:00,
2013-01-03 10:11:00,30.4,25.6,30.46,WNW,297,1.0,3.0,82,0.00,,---,0.00,VWS V14.01,2013-01-03 16:11:00,
2013-01-03 10:16:00,30.5,25.4,30.39,NW,311,0.0,2.0,81,0.00,,---,0.00,VWS V14.01,2013-01-03 16:16:00,
2013-01-03 10:21:00,30.8,25.7,30.39,NW,311,0.0,0.0,81,0.00,,---,0.00,VWS V14.01,2013-01-03 16:21:00,
2013-01-03 10:26:00,30.9,25.8,30.40,NW,311,0.0,0.0,81,0.00,,---,0.00,VWS V14.01,2013-01-03 16:26:00,
2013-01-03 10:31:00,31.0,25.6,30.40,NW,319,0.0,0.0,80,0.00,,---,0.00,VWS V14.01,2013-01-03 16:31:00,
2013-01-03 10:36:00,30.9,25.5,30.47,NNE,26,1.0,3.0,80,0.00,,---,0.00,VWS V14.01,2013-01-03 16:36:00,
2013-01-03 10:41:00,31.2,25.8,30.40,NNW,335,2.0,2.0,80,0.00,,---,0.00,VWS V14.01,2013-01-03 16:41:00,
2013-01-03 10:46:00,31.5,25.8,30.40,North,5,3.0,3.0,79,0.00,,---,0.00,VWS V14.01,2013-01-03 16:46:00,
2013-01-03 10:51:00,31.9,26.1,30.40,NNW,342,0.0,0.0,79,0.00,,---,0.00,VWS V14.01,2013-01-03 16:51:00,
2013-01-03 10:56:00,32.1,26.0,30.47,NNW,330,1.0,3.0,78,0.00,,---,0.00,VWS V14.01,2013-01-03 16:56:00,
2013-01-03 11:01:00,32.3,26.2,30.40,NNW,330,2.0,2.0,78,0.00,,---,0.00,VWS V14.01,2013-01-03 17:01:00,
2013-01-03 11:06:00,32.3,25.6,30.47,North,1,0.0,2.0,76,0.00,,---,0.00,VWS V14.01,2013-01-03 17:06:00,
2013-01-03 11:11:00,32.6,26.2,30.47,NW,320,2.0,2.0,77,0.00,,---,0.00,VWS V14.01,2013-01-03 17:11:00,
2013-01-03 11:16:00,32.5,25.8,30.40,NNE,17,1.0,1.0,76,0.00,,---,0.00,VWS V14.01,2013-01-03 17:16:00,
2013-01-03 11:21:00,32.4,26.0,30.47,NE,45,0.0,3.0,77,0.00,,---,0.00,VWS V14.01,2013-01-03 17:21:00,
2013-01-03 11:26:00,32.8,26.1,30.46,NNE,22,2.0,2.0,76,0.00,,---,0.00,VWS V14.01,2013-01-03 17:26:00,
2013-01-03 11:31:00,32.5,25.5,30.39,North,10,0.0,0.0,75,0.00,,---,0.00,VWS V14.01,2013-01-03 17:31:00,
2013-01-03 11:36:00,32.3,25.3,30.46,NNE,18,3.0,5.0,75,0.00,,---,0.00,VWS V14.01,2013-01-03 17:36:00,
2013-01-03 11:41:00,32.3,25.6,30.39,North,358,2.0,2.0,76,0.00,,---,0.00,VWS V14.01,2013-01-03 17:41:00,
2013-01-03 11:46:00,32.4,25.7,30.45,North,358,1.0,4.0,76,0.00,,---,0.00,VWS V14.01,2013-01-03 17:46:00,
2013-01-03 11:51:00,32.8,25.8,30.45,NW,322,0.0,4.0,75,0.01,,---,0.01,VWS V14.01,2013-01-03 17:51:00,
2013-01-03 11:56:00,32.7,25.3,30.38,NNE,22,4.0,8.0,74,0.01,,---,0.01,VWS V14.01,2013-01-03 17:56:00,
2013-01-03 12:01:00,33.0,26.0,30.45,NNW,339,2.0,4.0,75,0.01,,---,0.01,VWS V14.01,2013-01-03 18:01:00,
2013-01-03 12:05:00,33.3,25.9,30.38,NW,322,5.0,5.0,74,0.01,,---,0.01,VWS V14.01,2013-01-03 18:05:00,
2013-01-03 12:10:00,33.3,25.9,30.44,NW,322,3.0,6.0,74,0.01,,---,0.01,VWS V14.01,2013-01-03 18:10:00,
2013-01-03 12:15:00,33.5,26.1,30.44,NW,317,1.0,3.0,74,0.01,,---,0.01,VWS V14.01,2013-01-03 18:15:00,
2013-01-03 12:20:00,33.9,26.2,30.44,NW,311,2.0,5.0,73,0.01,,---,0.01,VWS V14.01,2013-01-03 18:20:00,
2013-01-03 12:25:00,34.1,26.4,30.37,NW,315,0.0,3.0,73,0.01,,---,0.01,VWS V14.01,2013-01-03 18:25:00,
2013-01-03 12:30:00,34.2,26.1,30.37,NW,322,3.0,5.0,72,0.01,,---,0.01,VWS V14.01,2013-01-03 18:30:00,
2013-01-03 12:35:00,34.1,26.0,30.36,NW,317,2.0,4.0,72,0.01,,---,0.01,VWS V14.01,2013-01-03 18:35:00,
2013-01-03 12:40:00,34.5,26.4,30.43,NW,319,1.0,4.0,72,0.01,,---,0.01,VWS V14.01,2013-01-03 18:40:00,
2013-01-03 12:45:00,34.8,26.4,30.43,NW,321,3.0,5.0,71,0.01,,---,0.01,VWS V14.01,2013-01-03 18:45:00,
2013-01-03 12:50:00,34.2,25.5,30.36,NW,318,1.0,5.0,70,0.01,,---,0.01,VWS V14.01,2013-01-03 18:50:00,
2013-01-03 12:55:00,34.8,26.7,30.42,NW,318,1.0,4.0,72,0.00,,---,0.01,VWS V14.01,2013-01-03 18:55:00,
2013-01-03 13:00:00,34.7,26.3,30.35,NW,320,0.0,2.0,71,0.00,,---,0.01,VWS V14.01,2013-01-03 19:00:00,
2013-01-03 13:05:00,35.3,26.5,30.35,NW,319,0.0,4.0,70,0.00,,---,0.01,VWS V14.01,2013-01-03 19:05:00,
2013-01-03 13:10:00,35.7,26.5,30.42,NW,318,0.0,3.0,69,0.00,,---,0.01,VWS V14.01,2013-01-03 19:10:00,
2013-01-03 13:15:00,35.4,26.3,30.42,North,3,0.0,1.0,69,0.00,,---,0.01,VWS V14.01,2013-01-03 19:15:00,
2013-01-03 13:51:00,37.0,25.6,30.41,NW,309,0.0,3.0,63,0.01,,---,0.02,VWS V14.01,2013-01-03 19:51:00,
2013-01-03 13:56:00,36.5,25.1,30.41,NW,317,0.0,3.0,63,0.01,,---,0.02,VWS V14.01,2013-01-03 19:56:00,
2013-01-03 14:01:00,36.5,24.7,30.41,NW,315,5.0,5.0,62,0.01,,---,0.02,VWS V14.01,2013-01-03 20:01:00,
2013-01-03 14:06:00,36.5,25.1,30.34,NW,307,3.0,3.0,63,0.01,,---,0.02,VWS V14.01,2013-01-03 20:06:00,
2013-01-03 14:11:00,36.5,24.3,30.34,NW,316,4.0,6.0,61,0.01,,---,0.02,VWS V14.01,2013-01-03 20:11:00,
2013-01-03 14:16:00,36.1,24.7,30.41,NW,316,4.0,4.0,63,0.01,,---,0.02,VWS V14.01,2013-01-03 20:16:00,
2013-01-03 14:21:00,36.0,24.3,30.34,NNW,330,1.0,1.0,62,0.01,,---,0.03,VWS V14.01,2013-01-03 20:21:00,
2013-01-03 14:26:00,36.6,25.6,30.34,WNW,303,1.0,1.0,64,0.01,,---,0.03,VWS V14.01,2013-01-03 20:26:00,
2013-01-03 14:31:00,36.8,25.4,30.41,NW,319,0.0,4.0,63,0.01,,---,0.03,VWS V14.01,2013-01-03 20:31:00,
2013-01-03 14:36:00,36.2,24.5,30.41,NNW,335,0.0,2.0,62,0.01,,---,0.03,VWS V14.01,2013-01-03 20:36:00,
2013-01-03 14:41:00,35.8,24.8,30.41,NW,314,3.0,4.0,64,0.01,,---,0.03,VWS V14.01,2013-01-03 20:41:00,
2013-01-03 14:46:00,35.7,25.1,30.34,NW,307,5.0,6.0,65,0.01,,---,0.03,VWS V14.01,2013-01-03 20:46:00,
2013-01-03 14:51:00,35.7,25.5,30.41,NW,322,1.0,2.0,66,0.01,,---,0.03,VWS V14.01,2013-01-03 20:51:00,
2013-01-03 14:56:00,35.7,25.5,30.34,NW,322,0.0,1.0,66,0.01,,---,0.03,VWS V14.01,2013-01-03 20:56:00,
2013-01-03 15:01:00,35.8,25.2,30.34,NW,322,0.0,0.0,65,0.01,,---,0.03,VWS V14.01,2013-01-03 21:01:00,
2013-01-03 15:06:00,35.6,24.3,30.34,North,357,0.0,1.0,63,0.01,,---,0.03,VWS V14.01,2013-01-03 21:06:00,
2013-01-03 15:11:00,35.2,24.3,30.41,NNE,20,1.0,4.0,64,0.01,,---,0.03,VWS V14.01,2013-01-03 21:11:00,
2013-01-03 15:16:00,35.2,24.6,30.35,NNE,15,3.0,3.0,65,0.01,,---,0.03,VWS V14.01,2013-01-03 21:16:00,
2013-01-03 15:21:00,35.2,24.6,30.41,NNW,334,1.0,2.0,65,0.00,,---,0.03,VWS V14.01,2013-01-03 21:21:00,
2013-01-03 15:26:00,35.3,25.1,30.35,NNW,338,3.0,3.0,66,0.00,,---,0.03,VWS V14.01,2013-01-03 21:26:00,
2013-01-03 15:31:00,35.2,25.0,30.41,NNW,338,0.0,2.0,66,0.00,,---,0.03,VWS V14.01,2013-01-03 21:31:00,
2013-01-03 15:36:00,34.9,24.3,30.41,NNE,14,1.0,2.0,65,0.00,,---,0.03,VWS V14.01,2013-01-03 21:36:00,
2013-01-03 15:41:00,34.8,25.0,30.35,North,351,1.0,1.0,67,0.00,,---,0.03,VWS V14.01,2013-01-03 21:41:00,
2013-01-03 15:46:00,34.7,24.9,30.42,NNW,335,1.0,3.0,67,0.00,,---,0.03,VWS V14.01,2013-01-03 21:46:00,
2013-01-03 15:51:00,34.8,25.0,30.35,NNW,336,2.0,2.0,67,0.00,,---,0.03,VWS V14.01,2013-01-03 21:51:00,
2013-01-03 15:56:00,34.6,24.8,30.35,NW,316,2.0,3.0,67,0.00,,---,0.03,VWS V14.01,2013-01-03 21:56:00,
2013-01-03 16:01:00,34.5,24.7,30.35,NW,316,0.0,1.0,67,0.00,,---,0.03,VWS V14.01,2013-01-03 22:01:00,
2013-01-03 16:06:00,34.4,25.0,30.35,NNW,328,0.0,1.0,68,0.00,,---,0.03,VWS V14.01,2013-01-03 22:06:00,
2013-01-03 16:11:00,34.3,24.9,30.35,North,355,0.0,0.0,68,0.00,,---,0.03,VWS V14.01,2013-01-03 22:11:00,
2013-01-03 16:16:00,34.2,24.8,30.42,North,355,0.0,1.0,68,0.00,,---,0.03,VWS V14.01,2013-01-03 22:16:00,
2013-01-03 16:21:00,34.1,24.7,30.42,NNW,340,2.0,3.0,68,0.00,,---,0.03,VWS V14.01,2013-01-03 22:21:00,
2013-01-03 16:26:00,34.0,24.9,30.36,NNW,332,1.0,2.0,69,0.00,,---,0.03,VWS V14.01,2013-01-03 22:26:00,
2013-01-03 16:31:00,34.0,25.3,30.42,NNW,332,0.0,3.0,70,0.00,,---,0.03,VWS V14.01,2013-01-03 22:31:00,
2013-01-03 16:36:00,33.9,24.8,30.42,NNW,332,1.0,3.0,69,0.00,,---,0.03,VWS V14.01,2013-01-03 22:36:00,
2013-01-03 16:41:00,33.8,24.7,30.42,NNW,330,3.0,4.0,69,0.00,,---,0.03,VWS V14.01,2013-01-03 22:41:00,
2013-01-03 16:46:00,33.8,24.4,30.42,NW,322,5.0,5.0,68,0.00,,---,0.03,VWS V14.01,2013-01-03 22:46:00,
2013-01-03 16:51:00,33.7,24.3,30.42,NNW,338,0.0,4.0,68,0.00,,---,0.03,VWS V14.01,2013-01-03 22:51:00,
2013-01-03 16:56:00,33.6,24.5,30.42,NNW,338,0.0,2.0,69,0.00,,---,0.03,VWS V14.01,2013-01-03 22:56:00,
2013-01-03 17:01:00,33.6,24.9,30.42,NNW,329,2.0,6.0,70,0.00,,---,0.03,VWS V14.01,2013-01-03 23:01:00,
2013-01-03 17:06:00,33.5,25.1,30.37,NW,314,3.0,3.0,71,0.00,,---,0.03,VWS V14.01,2013-01-03 23:06:00,
2013-01-03 17:11:00,33.4,25.4,30.37,NW,306,1.0,2.0,72,0.00,,---,0.03,VWS V14.01,2013-01-03 23:11:00,
2013-01-03 17:16:00,33.3,25.3,30.43,NW,310,2.0,4.0,72,0.00,,---,0.03,VWS V14.01,2013-01-03 23:16:00,
2013-01-03 17:21:00,33.2,25.5,30.37,NW,326,2.0,2.0,73,0.00,,---,0.03,VWS V14.01,2013-01-03 23:21:00,
2013-01-03 17:26:00,33.1,26.0,30.43,NW,326,0.0,1.0,75,0.00,,---,0.03,VWS V14.01,2013-01-03 23:26:00,
2013-01-03 17:31:00,33.0,25.3,30.43,NNW,328,1.0,3.0,73,0.00,,---,0.03,VWS V14.01,2013-01-03 23:31:00,
2013-01-03 17:36:00,32.9,24.9,30.37,NW,325,1.0,2.0,72,0.00,,---,0.03,VWS V14.01,2013-01-03 23:36:00,
2013-01-03 17:41:00,32.9,25.2,30.37,NW,325,3.0,3.0,73,0.00,,---,0.03,VWS V14.01,2013-01-03 23:41:00,
2013-01-03 17:46:00,32.7,24.7,30.44,NNW,330,2.0,3.0,72,0.00,,---,0.03,VWS V14.01,2013-01-03 23:46:00,
2013-01-03 17:51:00,32.5,24.5,30.44,NNW,330,2.0,4.0,72,0.00,,---,0.03,VWS V14.01,2013-01-03 23:51:00,
2013-01-03 17:56:00,32.3,24.6,30.38,NW,322,0.0,2.0,73,0.00,,---,0.03,VWS V14.01,2013-01-03 23:56:00,
2013-01-03 18:01:00,32.2,24.5,30.44,NW,326,1.0,2.0,73,0.00,,---,0.03,VWS V14.01,2013-01-04 00:01:00,
2013-01-03 18:06:00,32.2,24.9,30.38,NW,326,2.0,2.0,74,0.00,,---,0.03,VWS V14.01,2013-01-04 00:06:00,
2013-01-03 18:11:00,32.1,24.8,30.44,NW,326,1.0,2.0,74,0.00,,---,0.03,VWS V14.01,2013-01-04 00:11:00,
2013-01-03 18:16:00,32.1,24.8,30.44,NW,326,0.0,2.0,74,0.00,,---,0.03,VWS V14.01,2013-01-04 00:16:00,
2013-01-03 18:21:00,32.1,24.8,30.38,NW,326,2.0,2.0,74,0.00,,---,0.03,VWS V14.01,2013-01-04 00:21:00,
2013-01-03 18:26:00,32.1,24.8,30.38,NW,326,0.0,1.0,74,0.00,,---,0.03,VWS V14.01,2013-01-04 00:26:00,
2013-01-03 18:31:00,32.2,25.2,30.39,NW,326,0.0,0.0,75,0.00,,---,0.03,VWS V14.01,2013-01-04 00:31:00,
2013-01-03 18:36:00,32.2,25.2,30.39,NW,326,1.0,2.0,75,0.00,,---,0.03,VWS V14.01,2013-01-04 00:36:00,
2013-01-03 18:41:00,32.1,25.1,30.39,NW,326,0.0,0.0,75,0.00,,---,0.03,VWS V14.01,2013-01-04 00:41:00,
2013-01-03 18:46:00,32.2,25.5,30.39,NW,326,1.0,2.0,76,0.00,,---,0.03,VWS V14.01,2013-01-04 00:46:00,
2013-01-03 18:51:00,32.1,25.4,30.45,NW,326,1.0,2.0,76,0.00,,---,0.03,VWS V14.01,2013-01-04 00:51:00,
2013-01-03 18:56:00,32.0,25.3,30.39,NW,326,2.0,2.0,76,0.00,,---,0.03,VWS V14.01,2013-01-04 00:56:00,
2013-01-03 19:01:00,31.9,25.2,30.45,NW,326,0.0,2.0,76,0.00,,---,0.03,VWS V14.01,2013-01-04 01:01:00,
2013-01-03 19:06:00,31.6,25.2,30.45,NW,326,0.0,1.0,77,0.00,,---,0.03,VWS V14.01,2013-01-04 01:06:00,
2013-01-03 19:11:00,31.5,25.4,30.45,NW,326,0.0,0.0,78,0.00,,---,0.03,VWS V14.01,2013-01-04 01:11:00,
2013-01-03 19:16:00,31.4,25.6,30.39,NW,326,0.0,0.0,79,0.00,,---,0.03,VWS V14.01,2013-01-04 01:16:00,
2013-01-03 19:20:00,31.3,25.6,30.45,NW,326,0.0,1.0,79,0.00,,---,0.03,VWS V14.01,2013-01-04 01:20:00,
2013-01-03 19:25:00,31.2,25.8,30.39,NW,326,0.0,1.0,80,0.00,,---,0.03,VWS V14.01,2013-01-04 01:25:00,
2013-01-03 19:30:00,31.2,25.8,30.46,NW,326,0.0,0.0,80,0.00,,---,0.03,VWS V14.01,2013-01-04 01:30:00,
2013-01-03 19:35:00,31.2,25.8,30.39,NW,326,0.0,0.0,80,0.00,,---,0.03,VWS V14.01,2013-01-04 01:35:00,
2013-01-03 19:40:00,31.1,25.7,30.45,NW,326,0.0,1.0,80,0.00,,---,0.03,VWS V14.01,2013-01-04 01:40:00,
2013-01-03 19:45:00,31.1,25.7,30.39,NW,326,0.0,0.0,80,0.00,,---,0.03,VWS V14.01,2013-01-04 01:45:00,
2013-01-03 19:50:00,31.1,25.7,30.39,NW,326,2.0,2.0,80,0.00,,---,0.03,VWS V14.01,2013-01-04 01:50:00,
2013-01-03 19:55:00,31.0,25.3,30.45,NW,326,1.0,1.0,79,0.00,,---,0.03,VWS V14.01,2013-01-04 01:55:00,
2013-01-03 20:00:00,31.0,25.3,30.45,NW,326,0.0,1.0,79,0.00,,---,0.03,VWS V14.01,2013-01-04 02:00:00,
2013-01-03 20:05:00,30.9,25.5,30.39,NW,326,0.0,0.0,80,0.00,,---,0.03,VWS V14.01,2013-01-04 02:05:00,
2013-01-03 20:10:00,30.8,25.4,30.45,NW,326,0.0,0.0,80,0.00,,---,0.03,VWS V14.01,2013-01-04 02:10:00,
2013-01-03 20:15:00,30.9,25.5,30.45,NW,326,1.0,1.0,80,0.00,,---,0.03,VWS V14.01,2013-01-04 02:15:00,
2013-01-03 20:20:00,30.8,25.4,30.45,NW,326,0.0,0.0,80,0.00,,---,0.03,VWS V14.01,2013-01-04 02:20:00,
2013-01-03 20:25:00,30.9,25.5,30.39,NW,326,0.0,1.0,80,0.00,,---,0.03,VWS V14.01,2013-01-04 02:25:00,
2013-01-03 20:30:00,30.8,25.4,30.39,NW,326,0.0,1.0,80,0.00,,---,0.03,VWS V14.01,2013-01-04 02:30:00,
2013-01-03 20:35:00,30.5,25.1,30.38,NW,326,0.0,1.0,80,0.00,,---,0.03,VWS V14.01,2013-01-04 02:35:00,
2013-01-03 20:40:00,30.2,24.8,30.38,NW,326,0.0,0.0,80,0.00,,---,0.03,VWS V14.01,2013-01-04 02:40:00,
2013-01-03 20:45:00,29.8,24.7,30.38,NW,326,0.0,0.0,81,0.00,,---,0.03,VWS V14.01,2013-01-04 02:45:00,
2013-01-03 20:50:00,29.4,24.3,30.38,NW,326,0.0,0.0,81,0.00,,---,0.03,VWS V14.01,2013-01-04 02:50:00,
2013-01-03 20:55:00,29.3,24.5,30.38,NW,326,0.0,0.0,82,0.00,,---,0.03,VWS V14.01,2013-01-04 02:55:00,
2013-01-03 21:00:00,29.2,24.7,30.38,NW,326,0.0,0.0,83,0.00,,---,0.03,VWS V14.01,2013-01-04 03:00:00,
2013-01-03 21:05:00,28.9,24.4,30.38,NW,326,0.0,0.0,83,0.00,,---,0.03,VWS V14.01,2013-01-04 03:05:00,
2013-01-03 21:10:00,28.7,24.2,30.38,NW,326,0.0,0.0,83,0.00,,---,0.03,VWS V14.01,2013-01-04 03:10:00,
2013-01-03 21:15:00,28.5,24.3,30.44,NW,326,0.0,0.0,84,0.00,,---,0.03,VWS V14.01,2013-01-04 03:15:00,
2013-01-03 21:20:00,28.1,23.9,30.44,NW,326,0.0,0.0,84,0.00,,---,0.03,VWS V14.01,2013-01-04 03:20:00,
2013-01-03 21:25:00,27.8,23.6,30.44,NW,326,0.0,0.0,84,0.00,,---,0.03,VWS V14.01,2013-01-04 03:25:00,
2013-01-03 21:30:00,27.4,23.5,30.44,NW,326,0.0,0.0,85,0.00,,---,0.03,VWS V14.01,2013-01-04 03:30:00,
2013-01-03 21:35:00,27.0,23.4,30.38,NW,326,0.0,0.0,86,0.00,,---,0.03,VWS V14.01,2013-01-04 03:35:00,
2013-01-03 21:40:00,26.6,23.0,30.38,NW,326,0.0,0.0,86,0.00,,---,0.03,VWS V14.01,2013-01-04 03:40:00,
2013-01-03 21:45:00,26.3,23.0,30.38,NW,326,0.0,0.0,87,0.00,,---,0.03,VWS V14.01,2013-01-04 03:45:00,
2013-01-03 21:50:00,26.1,22.8,30.38,NW,326,0.0,0.0,87,0.00,,---,0.03,VWS V14.01,2013-01-04 03:50:00,
2013-01-03 21:55:00,25.6,22.5,30.38,NW,326,0.0,0.0,88,0.00,,---,0.03,VWS V14.01,2013-01-04 03:55:00,
2013-01-03 22:00:00,25.5,22.5,30.38,NW,326,0.0,0.0,88,0.00,,---,0.03,VWS V14.01,2013-01-04 04:00:00,
2013-01-03 22:05:00,25.6,22.5,30.38,NW,326,0.0,0.0,88,0.00,,---,0.03,VWS V14.01,2013-01-04 04:05:00,
2013-01-03 22:10:00,25.5,22.5,30.45,NW,326,0.0,0.0,88,0.00,,---,0.03,VWS V14.01,2013-01-04 04:10:00,
2013-01-03 22:15:00,25.0,22.0,30.45,NW,326,0.0,0.0,88,0.00,,---,0.03,VWS V14.01,2013-01-04 04:15:00,
2013-01-03 22:20:00,24.8,21.8,30.45,NW,326,0.0,0.0,88,0.00,,---,0.03,VWS V14.01,2013-01-04 04:20:00,
2013-01-03 22:25:00,24.5,21.7,30.38,NW,326,0.0,0.0,89,0.00,,---,0.03,VWS V14.01,2013-01-04 04:25:00,
2013-01-03 22:30:00,24.1,21.3,30.44,NW,326,0.0,0.0,89,0.00,,---,0.03,VWS V14.01,2013-01-04 04:30:00,
2013-01-03 22:35:00,23.9,21.1,30.38,NW,326,0.0,0.0,89,0.00,,---,0.03,VWS V14.01,2013-01-04 04:35:00,
2013-01-03 22:40:00,23.6,20.8,30.45,NW,326,0.0,0.0,89,0.00,,---,0.03,VWS V14.01,2013-01-04 04:40:00,
2013-01-03 22:45:00,23.5,21.0,30.45,NW,326,0.0,0.0,90,0.00,,---,0.03,VWS V14.01,2013-01-04 04:45:00,
2013-01-03 22:50:00,23.3,20.8,30.45,NW,326,0.0,0.0,90,0.00,,---,0.03,VWS V14.01,2013-01-04 04:50:00,
2013-01-03 22:55:00,23.1,20.6,30.38,NW,326,0.0,0.0,90,0.00,,---,0.03,VWS V14.01,2013-01-04 04:55:00,
2013-01-03 23:00:00,23.0,20.5,30.38,NW,326,0.0,0.0,90,0.00,,---,0.03,VWS V14.01,2013-01-04 05:00:00,
2013-01-03 23:01:00,23.0,20.5,30.44,NW,326,0.0,0.0,90,0.00,,---,0.03,VWS V14.01,2013-01-04 05:01:00,
2013-01-03 23:02:00,22.9,20.4,30.38,NW,326,0.0,0.0,90,0.00,,---,0.03,VWS V14.01,2013-01-04 05:02:00,
2013-01-03 23:07:00,22.6,20.1,30.44,NW,326,0.0,0.0,90,0.00,,---,0.03,VWS V14.01,2013-01-04 05:07:00,
2013-01-03 23:12:00,22.5,20.0,30.38,NW,326,0.0,0.0,90,0.00,,---,0.03,VWS V14.01,2013-01-04 05:12:00,
2013-01-03 23:17:00,22.5,20.0,30.44,NW,326,0.0,0.0,90,0.00,,---,0.03,VWS V14.01,2013-01-04 05:17:00,
2013-01-03 23:22:00,22.4,19.7,30.44,NW,326,0.0,0.0,89,0.00,,---,0.03,VWS V14.01,2013-01-04 05:22:00,
2013-01-03 23:27:00,22.4,19.9,30.44,NW,326,0.0,0.0,90,0.00,,---,0.03,VWS V14.01,2013-01-04 05:27:00,
2013-01-03 23:32:00,22.5,20.0,30.37,NW,326,0.0,0.0,90,0.00,,---,0.03,VWS V14.01,2013-01-04 05:32:00,
2013-01-03 23:37:00,22.2,19.7,30.37,NW,326,0.0,0.0,90,0.00,,---,0.03,VWS V14.01,2013-01-04 05:37:00,
2013-01-03 23:42:00,21.8,19.1,30.44,NW,326,0.0,0.0,89,0.00,,---,0.03,VWS V14.01,2013-01-04 05:42:00,
2013-01-03 23:47:00,21.7,19.2,30.44,NW,326,0.0,0.0,90,0.00,,---,0.03,VWS V14.01,2013-01-04 05:47:00,
2013-01-03 23:52:00,21.6,19.1,30.38,NW,326,0.0,0.0,90,0.00,,---,0.03,VWS V14.01,2013-01-04 05:52:00,
2013-01-03 23:57:00,21.3,18.8,30.38,NW,326,0.0,0.0,90,0.00,,---,0.03,VWS V14.01,2013-01-04 05:57:00,